Weather History for KBQK - January, 2014

Change the Weather History Date:

Wednesday, January 22, 2014

  Actual Average (KSSI) Record (KSSI)
Temperature  
Mean Temperature 38 °F 52 °F  
Max Temperature 46 °F 61 °F 77 °F (1954)
Min Temperature 30 °F 43 °F 18 °F (1985)
Degree Days  
Heating Degree Days 27 13  
Month to date heating degree days 307  
Since 1 July heating degree days 838  
Cooling Degree Days 0 0  
Month to date cooling degree days 0  
Year to date cooling degree days 0  
Moisture  
Dew Point 21 °F    
Average Humidity 55    
Maximum Humidity 75    
Minimum Humidity 27    
Precipitation  
Precipitation 0.00 in 0.12 in 1.63 in (1972)
Month to date precipitation 2.18  
Year to date precipitation 2.18  
Snow  
Snow 0.00 in - 0.00 in ()
Month to date snowfall  
Since 1 July snowfall  
Snow Depth -    
Sea Level Pressure  
Sea Level Pressure 30.09 in    
Wind  
Wind Speed 8 mph (WNW)    
Max Wind Speed 16 mph    
Max Gust Speed 22 mph    
Visibility 10 miles    
Events      
T = Trace of Precipitation, MM = Missing Value Source: NWS Daily Summary

Daily Weather History Graph

Daily Weather History Graph

Search for Another Location

Airport or City:

Trip Planner

Search our weather history database for the weather conditions in past years. The results will help you decide how hot, cold, wet, or windy it might be!

Date:

Astronomy

Jan. 22, 2014 Rise Set
Actual Time 7:23 AM EST 5:52 PM EST
Civil Twilight 6:57 AM EST 6:17 PM EST
Nautical Twilight 6:27 AM EST 6:47 PM EST
Astronomical Twilight 5:58 AM EST 7:16 PM EST
Moon 11:55 PM EST (1/22) 10:49 AM EST (1/22)
Length of Visible Light 11h 20m
Length of Day
10h 28m
Waning Gibbous, 65% of the Moon is Illuminated
Jan 22
Waning Gibbous
Jan 24
Last Quarter
Jan 30
New
Feb 6
First Quarter
Feb 14
Full

Hourly Weather History & Observations

Time (EST) Temp. Windchill Dew Point Humidity Pressure Visibility Wind Dir Wind Speed Gust Speed Precip Events Conditions
12:15 AM 41.0 °F 36.4 °F 26.6 °F 57% 29.92 in 10.0 mi WNW 6.9 mph - N/A   Clear
12:35 AM 41.0 °F 36.4 °F 26.6 °F 57% 29.92 in 10.0 mi WNW 6.9 mph - N/A   Clear
12:55 AM 41.0 °F 35.8 °F 26.6 °F 57% 29.93 in 10.0 mi WNW 8.1 mph 17.3 mph N/A   Clear
1:15 AM 39.2 °F 34.2 °F 26.6 °F 61% 29.93 in 10.0 mi West 6.9 mph 16.1 mph N/A   Clear
1:35 AM 37.4 °F 30.8 °F 26.6 °F 65% 29.94 in 10.0 mi WNW 9.2 mph 20.7 mph N/A   Clear
1:55 AM 37.4 °F 31.4 °F 26.6 °F 65% 29.95 in 10.0 mi WNW 8.1 mph 19.6 mph N/A   Clear
2:15 AM 35.6 °F 28.6 °F 26.6 °F 70% 29.95 in 10.0 mi West 9.2 mph 20.7 mph N/A   Clear
2:35 AM 35.6 °F 27.5 °F 24.8 °F 65% 29.97 in 10.0 mi WNW 11.5 mph 17.3 mph N/A   Clear
2:55 AM 35.6 °F 29.9 °F 26.6 °F 70% 29.97 in 10.0 mi WNW 6.9 mph - N/A   Clear
3:15 AM 33.8 °F 26.4 °F 26.6 °F 75% 29.99 in 10.0 mi WNW 9.2 mph - N/A   Clear
3:35 AM 33.8 °F 25.8 °F 26.6 °F 75% 30.00 in 10.0 mi WNW 10.4 mph - N/A   Clear
3:55 AM 33.8 °F 27.0 °F 24.8 °F 70% 29.99 in 10.0 mi WNW 8.1 mph 16.1 mph N/A   Clear
4:15 AM 33.8 °F 26.4 °F 24.8 °F 70% 30.00 in 10.0 mi WNW 9.2 mph 16.1 mph N/A   Clear
4:55 AM 32.0 °F 22.5 °F 23.0 °F 69% 30.01 in 10.0 mi WNW 12.7 mph 18.4 mph N/A   Clear
5:15 AM 32.0 °F 24.2 °F 23.0 °F 69% 30.02 in 10.0 mi WNW 9.2 mph - N/A   Clear
5:35 AM 32.0 °F 24.8 °F 23.0 °F 69% 30.03 in 10.0 mi WNW 8.1 mph 16.1 mph N/A   Clear
5:55 AM 32.0 °F 25.6 °F 23.0 °F 69% 30.04 in 10.0 mi WNW 6.9 mph - N/A   Clear
6:15 AM 32.0 °F 24.8 °F 23.0 °F 69% 30.05 in 10.0 mi WNW 8.1 mph - N/A   Clear
6:35 AM 30.2 °F 21.3 °F 21.2 °F 69% 30.06 in 10.0 mi WNW 10.4 mph - N/A   Clear
6:55 AM 30.2 °F 21.3 °F 21.2 °F 69% 30.06 in 10.0 mi WNW 10.4 mph - N/A   Clear
7:15 AM 30.2 °F 22.6 °F 21.2 °F 69% 30.07 in 10.0 mi WNW 8.1 mph - N/A   Clear
7:35 AM 30.2 °F 21.9 °F 21.2 °F 69% 30.08 in 10.0 mi West 9.2 mph - N/A   Clear
7:55 AM 30.2 °F 21.3 °F 21.2 °F 69% 30.09 in 10.0 mi WNW 10.4 mph 16.1 mph N/A   Clear
8:15 AM 32.0 °F 22.5 °F 21.2 °F 64% 30.10 in 10.0 mi WNW 12.7 mph - N/A   Clear
8:35 AM 32.0 °F 24.2 °F 21.2 °F 64% 30.11 in 10.0 mi WNW 9.2 mph - N/A   Clear
8:55 AM 32.0 °F 21.2 °F 21.2 °F 64% 30.12 in 10.0 mi WNW 16.1 mph 21.9 mph N/A   Clear
9:15 AM 32.0 °F 23.0 °F 21.2 °F 64% 30.12 in 10.0 mi NW 11.5 mph 20.7 mph N/A   Clear
9:35 AM 32.0 °F 22.5 °F 19.4 °F 60% 30.12 in 10.0 mi WNW 12.7 mph 19.6 mph N/A   Clear
9:55 AM 33.8 °F 25.8 °F 19.4 °F 56% 30.13 in 10.0 mi WNW 10.4 mph - N/A   Clear
10:15 AM 33.8 °F 25.8 °F 19.4 °F 56% 30.13 in 10.0 mi WNW 10.4 mph 16.1 mph N/A   Clear
10:35 AM 35.6 °F 27.5 °F 19.4 °F 52% 30.13 in 10.0 mi West 11.5 mph - N/A   Clear
10:55 AM 37.4 °F 31.4 °F 19.4 °F 48% 30.14 in 10.0 mi WNW 8.1 mph - N/A   Clear
11:15 AM 37.4 °F 30.8 °F 19.4 °F 48% 30.14 in 10.0 mi WNW 9.2 mph 19.6 mph N/A   Clear
11:35 AM 39.2 °F 34.2 °F 19.4 °F 45% 30.13 in 10.0 mi West 6.9 mph 17.3 mph N/A   Clear
11:55 AM 39.2 °F 30.8 °F 19.4 °F 45% 30.13 in 10.0 mi West 15.0 mph - N/A   Clear
12:15 PM 41.0 °F 33.9 °F 19.4 °F 42% 30.12 in 10.0 mi West 12.7 mph - N/A   Clear
12:35 PM 41.0 °F 34.7 °F 19.4 °F 42% 30.10 in 10.0 mi WNW 10.4 mph 18.4 mph N/A   Clear
12:55 PM 41.0 °F 35.8 °F 19.4 °F 42% 30.09 in 10.0 mi West 8.1 mph - N/A   Clear
1:15 PM 42.8 °F 37.0 °F 19.4 °F 39% 30.09 in 10.0 mi WNW 10.4 mph - N/A   Clear
1:35 PM 42.8 °F 36.6 °F 17.6 °F 36% 30.09 in 10.0 mi West 11.5 mph 18.4 mph N/A   Clear
1:55 PM 44.6 °F 38.1 °F 19.4 °F 37% 30.08 in 10.0 mi WSW 13.8 mph - N/A   Clear
2:15 PM 44.6 °F 38.4 °F 17.6 °F 34% 30.08 in 10.0 mi West 12.7 mph 16.1 mph N/A   Clear
2:35 PM 44.6 °F 38.8 °F 17.6 °F 34% 30.07 in 10.0 mi WSW 11.5 mph - N/A   Clear
2:55 PM 44.6 °F 39.2 °F 15.8 °F 31% 30.07 in 10.0 mi West 10.4 mph - N/A   Clear
3:15 PM 44.6 °F 39.2 °F 17.6 °F 34% 30.07 in 10.0 mi West 10.4 mph - N/A   Clear
3:35 PM 46.4 °F 41.9 °F 14.0 °F 27% 30.07 in 10.0 mi WNW 9.2 mph - N/A   Clear
3:55 PM 46.4 °F 41.9 °F 15.8 °F 29% 30.07 in 10.0 mi West 9.2 mph - N/A   Clear
4:15 PM 44.6 °F 40.7 °F 14.0 °F 29% 30.08 in 10.0 mi West 6.9 mph 10.4 mph N/A   Clear
4:35 PM 44.6 °F 39.7 °F 15.8 °F 31% 30.08 in 10.0 mi West 9.2 mph - N/A   Clear
4:55 PM 44.6 °F 40.2 °F 15.8 °F 31% 30.09 in 10.0 mi West 8.1 mph - N/A   Clear
5:15 PM 44.6 °F 39.7 °F 14.0 °F 29% 30.10 in 10.0 mi West 9.2 mph - N/A   Clear
5:35 PM 42.8 °F 40.1 °F 14.0 °F 31% 30.10 in 10.0 mi West 4.6 mph - N/A   Clear
5:55 PM 41.0 °F 39.0 °F 15.8 °F 36% 30.11 in 10.0 mi West 3.5 mph - N/A   Clear
6:15 PM 37.4 °F - 19.4 °F 48% 30.11 in 10.0 mi Calm Calm - N/A   Clear
6:35 PM 37.4 °F - 21.2 °F 52% 30.11 in 10.0 mi Calm Calm - N/A   Clear
6:55 PM 35.6 °F - 23.0 °F 60% 30.13 in 10.0 mi Calm Calm - N/A   Clear
7:15 PM 35.6 °F - 24.8 °F 65% 30.14 in 10.0 mi Calm Calm - N/A   Clear
7:35 PM 33.8 °F - 24.8 °F 70% 30.15 in 10.0 mi Calm Calm - N/A   Clear
7:55 PM 33.8 °F - 24.8 °F 70% 30.17 in 10.0 mi Calm Calm - N/A   Clear
8:15 PM 35.6 °F - 21.2 °F 56% 30.16 in 10.0 mi Calm Calm - N/A   Clear
8:35 PM 35.6 °F 31.7 °F 19.4 °F 52% 30.17 in 10.0 mi West 4.6 mph - N/A   Clear
8:55 PM 35.6 °F 32.8 °F 19.4 °F 52% 30.17 in 10.0 mi WNW 3.5 mph - N/A   Clear
9:15 PM 35.6 °F 32.8 °F 19.4 °F 52% 30.18 in 10.0 mi West 3.5 mph - N/A   Clear
9:35 PM 35.6 °F - 19.4 °F 52% 30.19 in 10.0 mi Calm Calm - N/A   Clear
9:55 PM 33.8 °F - 23.0 °F 65% 30.19 in 10.0 mi Calm Calm - N/A   Clear
10:15 PM 32.0 °F - 24.8 °F 75% 30.20 in 10.0 mi Calm Calm - N/A   Clear
10:35 PM 32.0 °F - 23.0 °F 69% 30.19 in 10.0 mi Calm Calm - N/A   Clear
10:55 PM 32.0 °F 28.7 °F 23.0 °F 69% 30.20 in 10.0 mi WNW 3.5 mph - N/A   Clear
11:15 PM 32.0 °F - 21.2 °F 64% 30.21 in 10.0 mi Calm Calm - N/A   Clear
11:35 PM 32.0 °F - 23.0 °F 69% 30.21 in 10.0 mi Calm Calm - N/A   Clear
11:55 PM 32.0 °F - 23.0 °F 69% 30.21 in 10.0 mi Calm Calm - N/A   Clear